When you browse on this site, cookies collect data to enhance your experience and personalize the content and advertising you see.
Visit our Privacy Policy to learn more. By continuing to use the site, you agree to this use of cookies and data.
  • In United Kingdom
  • List of Countries
  • For 7 days
  • Water Temperature
  • Satellite Maps
  • Weather Map
  • Weather Widgets
  • user-avatar
    Login

    Hourly Weather Top

    Today, 21 February, Thursday

    Time Temperature Precipitation Wind Pressure Humidity
    00:00 +19°C° 0 mm 0 mps 686 mmHg 82%
    01:00 +18°C° 0 mm 0 mps 685 mmHg 84%
    02:00 +18°C° 0 mm 0 mps 685 mmHg 85%
    03:00 +18°C° 0 mm 0 mps 685 mmHg 85%
    04:00 +18°C° 0 mm 0 mps 685 mmHg 86%
    05:00 +18°C° 0 mm 0 mps 685 mmHg 84%
    06:00 +18°C° 0 mm 0 mps 686 mmHg 82%
    07:00 +19°C° 0 mm 0 mps 686 mmHg 78%
    08:00 +23°C° 0 mm 0 mps 687 mmHg 65%
    09:00 +26°C° 0 mm 0 mps 688 mmHg 51%
    10:00 +30°C° 0 mm 0 mps 689 mmHg 38%
    11:00 +30°C° 0 mm 0 mps 688 mmHg 37%
    12:00 +31°C° 0 mm 0 mps 687 mmHg 37%
    13:00 +31°C° 0 mm 0 mps 687 mmHg 36%
    14:00 +30°C° 0 mm 0 mps 686 mmHg 38%
    15:00 +30°C° 0 mm 0 mps 686 mmHg 40%
    16:00 +29°C° 0 mm 0 mps 685 mmHg 42%
    17:00 +27°C° 0.1 mm 0 mps 685 mmHg 51%
    18:00 +26°C° 0.1 mm 1 mps 684 mmHg 59%
    19:00 +24°C° 0.1 mm 1 mps 684 mmHg 68%
    20:00 +23°C° 0 mm 1 mps 684 mmHg 72%
    21:00 +22°C° 0 mm 1 mps 685 mmHg 77%
    22:00 +22°C° 0 mm 1 mps 685 mmHg 81%
    23:00 +21°C° 0 mm 1 mps 684 mmHg 82%

    Tomorrow, 22 February, Friday

    Time Temperature Precipitation Wind Pressure Humidity
    00:00 +21°C° 0 mm 1 mps 684 mmHg 84%
    01:00 +21°C° 0 mm 1 mps 684 mmHg 85%
    02:00 +20°C° 0 mm 1 mps 684 mmHg 86%
    03:00 +20°C° 0 mm 1 mps 683 mmHg 86%
    04:00 +20°C° 0 mm 1 mps 683 mmHg 86%
    05:00 +20°C° 0 mm 1 mps 684 mmHg 84%
    06:00 +21°C° 0 mm 1 mps 684 mmHg 82%
    07:00 +19°C° 0 mm 0 mps 685 mmHg 80%
    08:00 +23°C° 0 mm 0 mps 686 mmHg 66%
    09:00 +26°C° 0 mm 0 mps 687 mmHg 53%
    10:00 +30°C° 0 mm 0 mps 688 mmHg 39%
    11:00 +30°C° 0 mm 0 mps 687 mmHg 40%
    12:00 +30°C° 0 mm 0 mps 686 mmHg 40%
    13:00 +30°C° 0 mm 0 mps 685 mmHg 41%
    14:00 +30°C° 0 mm 0 mps 685 mmHg 40%
    15:00 +32°C° 0 mm 1 mps 684 mmHg 38%
    16:00 +32°C° 0 mm 1 mps 684 mmHg 37%
    17:00 +29°C° 0 mm 1 mps 683 mmHg 45%
    18:00 +27°C° 0 mm 1 mps 683 mmHg 54%
    19:00 +24°C° 0 mm 1 mps 683 mmHg 63%
    20:00 +23°C° 0 mm 1 mps 683 mmHg 69%
    21:00 +22°C° 0 mm 1 mps 684 mmHg 75%
    22:00 +21°C° 0 mm 1 mps 684 mmHg 81%
    23:00 +21°C° 0 mm 1 mps 684 mmHg 83%

    Day after tomorrow, 23 February, Saturday

    Time Temperature Precipitation Wind Pressure Humidity
    00:00 +20°C° 0 mm 1 mps 683 mmHg 86%
    01:00 +20°C° 0 mm 1 mps 683 mmHg 88%
    02:00 +20°C° 0 mm 1 mps 683 mmHg 88%
    03:00 +19°C° 0 mm 1 mps 683 mmHg 88%
    04:00 +17°C° 0 mm 0 mps 682 mmHg 88%
    05:00 +17°C° 0 mm 0 mps 683 mmHg 85%
    06:00 +18°C° 0 mm 0 mps 683 mmHg 83%
    07:00 +18°C° 0 mm 0 mps 684 mmHg 80%
    08:00 +22°C° 0 mm 0 mps 685 mmHg 67%
    09:00 +28°C° 0 mm 1 mps 686 mmHg 54%
    10:00 +31°C° 0 mm 1 mps 687 mmHg 40%
    11:00 +31°C° 0 mm 1 mps 686 mmHg 39%
    12:00 +32°C° 0 mm 1 mps 685 mmHg 38%
    13:00 +32°C° 0 mm 1 mps 684 mmHg 36%
    14:00 +31°C° 0 mm 1 mps 683 mmHg 39%
    15:00 +30°C° 0 mm 1 mps 683 mmHg 42%
    16:00 +27°C° 0 mm 0 mps 682 mmHg 45%
    17:00 +28°C° 0 mm 1 mps 682 mmHg 51%
    18:00 +26°C° 0 mm 1 mps 682 mmHg 57%
    19:00 +24°C° 0 mm 1 mps 682 mmHg 63%
    20:00 +23°C° 0 mm 1 mps 683 mmHg 68%
    21:00 +22°C° 0 mm 1 mps 683 mmHg 74%
    22:00 +21°C° 0 mm 1 mps 683 mmHg 79%
    23:00 +21°C° 0 mm 1 mps 683 mmHg 80%

    24 February, Sunday

    Time Temperature Precipitation Wind Pressure Humidity
    00:00 +21°C° 0 mm 1 mps 683 mmHg 82%
    01:00 +20°C° 0 mm 1 mps 683 mmHg 83%
    02:00 +18°C° 0 mm 0 mps 682 mmHg 83%
    03:00 +18°C° 0 mm 0 mps 682 mmHg 82%
    04:00 +18°C° 0 mm 0 mps 682 mmHg 81%
    05:00 +18°C° 0 mm 0 mps 683 mmHg 79%
    06:00 +19°C° 0 mm 0 mps 683 mmHg 77%
    07:00 +19°C° 0 mm 0 mps 684 mmHg 75%
    08:00 +24°C° 0 mm 1 mps 685 mmHg 64%
    09:00 +27°C° 0 mm 1 mps 686 mmHg 54%
    10:00 +30°C° 0 mm 1 mps 686 mmHg 43%
    11:00 +31°C° 0 mm 1 mps 686 mmHg 42%
    12:00 +31°C° 0 mm 1 mps 685 mmHg 42%
    13:00 +32°C° 0 mm 1 mps 684 mmHg 41%
    14:00 +29°C° 0.1 mm 0 mps 683 mmHg 44%
    15:00 +28°C° 0.1 mm 0 mps 683 mmHg 48%
    16:00 +27°C° 0.1 mm 0 mps 682 mmHg 52%
    17:00 +25°C° 0 mm 0 mps 682 mmHg 56%
    18:00 +26°C° 0 mm 1 mps 682 mmHg 61%
    19:00 +24°C° 0 mm 1 mps 683 mmHg 65%
    20:00 +24°C° 0 mm 1 mps 683 mmHg 70%
    21:00 +23°C° 0 mm 1 mps 683 mmHg 74%
    22:00 +22°C° 0 mm 1 mps 684 mmHg 79%
    23:00 +22°C° 0 mm 1 mps 683 mmHg 81%

    25 February, Monday

    Time Temperature Precipitation Wind Pressure Humidity
    00:00 +21°C° 0 mm 1 mps 683 mmHg 82%
    01:00 +19°C° 0 mm 0 mps 683 mmHg 84%
    02:00 +19°C° 0 mm 0 mps 683 mmHg 84%
    03:00 +19°C° 0 mm 0 mps 682 mmHg 84%
    04:00 +18°C° 0 mm 0 mps 682 mmHg 85%
    05:00 +19°C° 0 mm 0 mps 683 mmHg 83%
    06:00 +19°C° 0 mm 0 mps 684 mmHg 80%
    07:00 +20°C° 0 mm 0 mps 684 mmHg 78%
    08:00 +23°C° 0.1 mm 0 mps 685 mmHg 66%
    09:00 +26°C° 0.1 mm 0 mps 686 mmHg 54%
    10:00 +32°C° 0.1 mm 1 mps 687 mmHg 42%
    11:00 +30°C° 0.1 mm 0 mps 686 mmHg 43%
    12:00 +29°C° 0.1 mm 0 mps 685 mmHg 43%
    13:00 +29°C° 0.1 mm 0 mps 684 mmHg 44%
    14:00 +29°C° 0 mm 0 mps 684 mmHg 44%
    15:00 +31°C° 0 mm 1 mps 683 mmHg 44%
    16:00 +30°C° 0 mm 1 mps 683 mmHg 44%
    17:00 +28°C° 0 mm 1 mps 683 mmHg 50%
    18:00 +26°C° 0 mm 1 mps 683 mmHg 56%
    19:00 +24°C° 0 mm 1 mps 684 mmHg 62%
    20:00 +23°C° 0 mm 1 mps 684 mmHg 67%
    21:00 +22°C° 0 mm 1 mps 684 mmHg 71%
    22:00 +21°C° 0 mm 1 mps 684 mmHg 76%
    23:00 +21°C° 0 mm 1 mps 684 mmHg 77%

    26 February, Tuesday

    Time Temperature Precipitation Wind Pressure Humidity
    00:00 +20°C° 0 mm 1 mps 684 mmHg 79%
    01:00 +20°C° 0 mm 1 mps 683 mmHg 80%
    02:00 +19°C° 0 mm 1 mps 683 mmHg 79%
    03:00 +19°C° 0 mm 1 mps 683 mmHg 77%
    04:00 +19°C° 0 mm 1 mps 683 mmHg 75%
    05:00 +19°C° 0 mm 1 mps 684 mmHg 72%
    06:00 +20°C° 0 mm 1 mps 684 mmHg 70%
    07:00 +20°C° 0 mm 1 mps 685 mmHg 67%
    08:00 +24°C° 0 mm 1 mps 686 mmHg 54%
    09:00 +28°C° 0 mm 1 mps 687 mmHg 41%
    10:00 +30°C° 0 mm 0 mps 688 mmHg 28%
    11:00 +34°C° 0 mm 1 mps 687 mmHg 25%
    12:00 +35°C° 0 mm 1 mps 687 mmHg 22%
    13:00 +36°C° 0 mm 1 mps 686 mmHg 19%
    14:00 +35°C° 0 mm 1 mps 686 mmHg 20%
    15:00 +34°C° 0 mm 1 mps 685 mmHg 22%
    16:00 +34°C° 0 mm 2 mps 685 mmHg 24%
    17:00 +30°C° 0 mm 1 mps 684 mmHg 35%
    18:00 +27°C° 0 mm 1 mps 684 mmHg 45%
    19:00 +24°C° 0 mm 1 mps 684 mmHg 56%
    20:00 +23°C° 0 mm 1 mps 685 mmHg 65%
    21:00 +21°C° 0 mm 1 mps 685 mmHg 73%
    22:00 +20°C° 0 mm 1 mps 685 mmHg 81%
    23:00 +20°C° 0 mm 1 mps 684 mmHg 84%
    Show more